Flag for Canada Weather past 2 weeks in Barrie, Ontario, Canada

Now
66 °F

Overcast.


Feels Like: 66 °F
Forecast: 62 / 74 °F
Wind: 6 mph from South

Location: Borden

Current Time: Aug 21, 2014 at 3:05:04 AM

Latest Report: Aug 21, 2014 at 2:00 AM


Visibility: 3 mi

Pressure: 29.90 "Hg

Humidity: 100%

Dew point: 66 °F

Location of BarrieLocation

Historic Weather in Barrie — Graph

°F

Barrie temperature yesterday

Maximum temperature yesterday: 77 °F (at 3:00 PM)
Minimum temperature yesterday: 55 °F (at 6:00 AM)
Average temperature yesterday: 65 °F

Past Weeks' High & Low Weather Summary

 TemperatureHumidityPressure
High84 °F (Aug 11, 3:00 PM)100% (Aug 6, 2:00 AM)30.21 "Hg (Aug 6, 2:00 AM)
Low45 °F (Aug 18, 3:02 AM)38% (Aug 15, 3:00 PM)29.64 "Hg (Aug 12, 7:00 PM)
Average62 °F82%29.95 "Hg
* Reported Aug 6 2:00 AM — Aug 21 2:00 AM, Barrie, Weather by CustomWeather, © 2014

Note: Actual official high and low records may vary slightly from our data, if they occured in-between our weather recording intervals... More about our weather records

Advertising

Barrie weather history for previous 24 hours

 ConditionsComfort  
Time TempWeatherWind HumidityBarometerVisibility
2:00 AM
Aug 21
66 °FOvercast.6 mph100%29.90 "Hg3 mi
1:00 AM66 °FLow clouds.3 mph100%29.92 "Hg3 mi
12:00 AM66 °FOvercast.5 mph100%29.92 "Hg7 mi
11:55 PM
Aug 20
66 °FOvercast.5 mph100%29.92 "Hg7 mi
11:00 PM66 °FOvercast.5 mph100%29.91 "Hg8 mi
10:00 PM66 °FPassing clouds.6 mph100%29.89 "Hg9 mi
9:00 PM66 °FPartly sunny.7 mph100%29.90 "Hg9 mi
8:00 PM66 °FLow clouds.2 mph100%29.90 "Hg9 mi
7:00 PM66 °FLight rain. Light fog.2 mph100%29.90 "Hg5 mi
6:58 PM66 °FLight rain. Light fog.5 mph100%29.90 "Hg5 mi
6:00 PM70 °FHeavy rain. Dense fog.5 mph100%29.89 "Hg1 mi
5:56 PM70 °FRain. Dense fog.3 mph100%29.89 "Hg1 mi
5:02 PM73 °FLight rain. Overcast.9 mph83%29.87 "Hg7 mi
4:00 PM75 °FPartly sunny.14 mph74%29.86 "Hg9 mi
3:56 PM77 °FPartly sunny.14 mph74%29.86 "Hg9 mi
3:00 PM77 °FPartly sunny.13 mph74%29.87 "Hg9 mi
2:00 PM75 °FMostly cloudy.10 mph78%29.88 "Hg9 mi
1:00 PM73 °FCloudy.8 mph78%29.87 "Hg9 mi
12:01 PM72 °FScattered clouds.7 mph83%29.88 "Hg9 mi
11:00 AM72 °FPassing clouds.7 mph78%29.88 "Hg9 mi
10:00 AM66 °FSunny.6 mph83%29.88 "Hg9 mi
9:00 AM63 °FSunny.5 mph88%29.87 "Hg9 mi
8:00 AM59 °FSunny.2 mph94%29.86 "Hg9 mi
7:00 AM55 °FClear.2 mph100%29.86 "Hg9 mi
6:00 AM55 °FClear.No wind100%29.85 "Hg2 mi
5:00 AM57 °FClear.No wind94%29.83 "Hg9 mi
4:00 AM57 °FPassing clouds.3 mph100%29.84 "Hg9 mi
3:00 AM59 °FPassing clouds.3 mph94%29.84 "Hg9 mi
Weather by CustomWeather, © 2014

See weather overviewHow to use our weather pages